Notices

What's New in latest Release from April 7th, 2021:

- Updated Glossary, including Speed of Maximum Gust, and Total Hourly Precipitation

- Updated national and regional climate services offices contacts and prices information

- Addition of station inventory lists for 1981-2010, 1971-2000, and 1961-1990 Normals.

If you haven't already, please take our survey and provide feedback about our website: https://eccc.sondage-survey.ca/f/LanguageSelection.aspx?s=442ca660-fcf1-47c0-95a9-59707d6fd709

Hourly Data Report for December 27, 2020

CARBERRY CS
MANITOBA
Current Station Operator: ECCC - MSC

49°54'20.900" N
99°21'26.800" W
383.50 m
5010547
71170
WZE

Download Data

Hourly Data (December 2020)
Hourly Data Report for December 27, 2020
TIME
LST
Temp Definition
°C
Dew Point Definition
°C
Rel Hum Definition
%
Precip. Amount Definition
mm

Wind Dir Definition
10's deg

Wind Spd Definition
km/h
Visibility Definition
km
Stn Press Definition
kPa
Hmdx Definition


Wind Chill Definition


Weather Definition


00:00 -10.5 -11.2 95 0.0 36 8   96.81   -15 LegendNANA
01:00 -10.2 -11.1 94 0.2 36 6   96.81   -14 LegendNANA
02:00 -12.3 -13.1 94 0.0 34 2   96.84   -14 LegendNANA
03:00 -13.3 -14.4 91 0.0 28 7   96.88   -18 LegendNANA
04:00 -11.5 -12.9 90 0.0 25 7   96.88   -16 LegendNANA
05:00 -12.2 -14.0 87 0.0 28 12   96.94   -19 LegendNANA
06:00 -12.0 -13.8 86 0.0 25 9   96.91   -17 LegendNANA
07:00 -13.0 -14.4 89 0.0 25 13   96.88   -20 LegendNANA
08:00 -13.2 -14.8 88 0.0 26 16   96.93   -21 LegendNANA
09:00 -13.4 -15.2 87 0.0 26 12   96.96   -20 LegendNANA
10:00 -12.7 -14.7 85 0.0 24 8   96.98   -18 LegendNANA
11:00 -10.1 -12.5 82 0.0 27 18   96.98   -18 LegendNANA
12:00 -7.7 -11.3 75 0.0 29 19   96.97   -15 LegendNANA
13:00 -7.6 -11.0 77 0.0 27 18   97.02   -14 LegendNANA
14:00 -7.9 -9.8 86 0.0 28 14   97.05   -14 LegendNANA
15:00 -9.6 -11.7 85 0.2 36 16   97.11   -16 LegendNANA
16:00 -10.8 -12.9 84 0.0 2 13   97.17   -17 LegendNANA
17:00 -11.4 -14.2 80 0.0 3 12   97.24   -18 LegendNANA
18:00 -12.9 -15.5 81 0.2 3 18   97.30   -21 LegendNANA
19:00 -13.5 -16.2 80 0.0 3 16   97.36   -21 LegendNANA
20:00 -14.4 -17.4 78 0.0 2 21   97.40   -24 LegendNANA
21:00 -15.1 -18.7 74 0.0 2 21   97.47   -25 LegendNANA
22:00 -15.7 -19.3 74 0.0 3 15   97.52   -24 LegendNANA
23:00 -16.1 -19.6 75 0.0 3 13   97.59   -24 LegendNANA

Notes on Data Quality.

Legend

  • E = Estimated
  • M = Missing
  • NA = Not Available*
  • [empty] = Indicates an unobserved value
Date modified: